GW4484 Weather Reports


time (UTC)temp
F
wind
direction
speed
knots
gust
knots
rain 1hr
in
rain 24hr
in
rain mn
in
humidity
%
barometer
mb
20260507161558 64 240 1.7 5.2 0.00 0.00 0.00 77 1017.0
20260507160113 62 215 1.7 5.2 0.00 0.00 0.00 79 1017.1
20260507154553 63 227 1.7 6.1 0.00 0.00 0.00 78 1017.1
20260507153051 64 264 0.0 3.5 0.00 0.00 0.00 77 1017.0
20260507151558 63 292 0.9 3.5 0.00 0.00 0.00 80 1017.1
20260507150053 62 298 0.9 2.6 0.00 0.00 0.00 82 1017.0
20260507144557 62 251 0.9 2.6 0.00 0.00 0.00 80 1016.8
20260507143113 61 316 0.0 1.7 0.00 0.00 0.00 83 1016.8
20260507141626 58 0 0.0 2.6 0.00 0.00 0.00 87 1016.7
20260507140109 56 0 0.0 1.7 0.00 0.00 0.00 90 1016.7
20260507134616 55 30 0.0 1.7 0.00 0.00 0.00 90 1016.6
20260507133107 55 30 0.0 0.0 0.00 0.00 0.00 90 1016.6
20260507131621 54 0 0.0 1.7 0.00 0.00 0.00 90 1016.5
20260507130109 54 30 0.0 0.9 0.00 0.00 0.00 90 1016.3
20260507124603 54 0 0.0 0.9 0.00 0.00 0.00 90 1016.3
20260507123104 54 0 0.0 0.9 0.00 0.00 0.00 89 1016.2
20260507121559 54 30 0.0 1.7 0.00 0.00 0.00 90 1016.2
20260507120054 54 0 0.0 1.7 0.00 0.00 0.00 89 1016.1
20260507114553 54 0 0.0 0.9 0.00 0.00 0.00 89 1016.2
20260507113131 55 0 0.0 0.9 0.00 0.00 0.00 89 1016.2
20260507111559 55 0 0.0 0.9 0.00 0.00 0.00 88 1016.2
20260507110057 55 0 0.0 0.9 0.00 0.00 0.00 88 1016.3
20260507104606 55 0 0.0 0.9 0.00 0.00 0.00 88 1016.3
20260507103055 55 30 0.0 0.9 0.00 0.00 0.00 88 1016.4
20260507101559 56 0 0.0 0.0 0.00 0.00 0.00 87 1016.4
20260507094601 56 30 0.0 1.7 0.00 0.00 0.00 87 1016.5
20260507093052 56 0 0.0 2.6 0.00 0.00 0.00 86 1016.7
20260507091553 57 0 0.0 1.7 0.00 0.00 0.00 87 1016.8
20260507090054 57 62 0.0 2.6 0.00 0.00 0.00 87 1017.0
20260507084559 57 0 0.0 0.9 0.00 0.00 0.00 86 1017.2
20260507083057 58 0 0.0 0.9 0.00 0.00 0.00 87 1017.3
20260507081552 58 0 0.0 0.9 0.00 0.00 0.00 86 1017.5
20260507080056 59 0 0.0 0.9 0.00 0.00 0.00 86 1017.6
20260507074552 60 0 0.0 1.7 0.00 0.00 0.00 87 1017.6
20260507073058 60 0 0.0 0.9 0.00 0.00 0.00 87 1017.6
20260507071550 60 0 0.0 0.9 0.00 0.00 0.00 86 1017.6
20260507070104 60 0 0.0 1.7 0.00 0.00 0.00 86 1017.6
20260507064553 60 0 0.0 1.7 0.00 0.00 0.00 85 1017.8
20260507063056 60 211 0.0 1.7 0.00 0.00 0.00 84 1017.8
20260507061552 61 211 0.0 1.7 0.00 0.00 0.00 83 1017.7
20260507060053 61 232 0.9 1.7 0.00 0.00 0.00 81 1017.8
20260507054552 61 229 0.0 1.7 0.00 0.00 0.00 81 1017.7
20260507053052 61 282 0.0 2.6 0.00 0.00 0.00 81 1017.8
20260507051559 61 0 0.9 3.5 0.00 0.00 0.00 80 1018.0
20260507050110 61 249 0.0 3.5 0.00 0.00 0.00 80 1017.8
20260507044557 62 246 0.9 2.6 0.00 0.00 0.00 79 1017.8
20260507043054 62 0 0.9 3.5 0.00 0.00 0.00 78 1017.7
20260507041553 62 273 0.9 3.5 0.00 0.00 0.00 78 1017.7
20260507040103 62 260 0.9 6.1 0.00 0.00 0.00 78 1017.5
20260507034559 63 0 0.9 2.6 0.00 0.00 0.00 80 1017.3
20260507033055 63 238 1.7 7.8 0.00 0.00 0.00 80 1017.1
20260507031556 63 271 1.7 6.1 0.00 0.00 0.00 79 1017.0
20260507030056 64 274 0.9 4.3 0.00 0.00 0.00 77 1016.9
20260507024550 64 244 0.9 6.1 0.00 0.00 0.00 75 1016.7
20260507023052 65 282 0.9 6.1 0.00 0.00 0.00 73 1016.7
20260507021559 66 203 2.6 8.7 0.00 0.00 0.00 71 1016.6
20260507020057 66 263 1.7 8.7 0.00 0.00 0.00 69 1016.5
20260507014549 67 253 1.7 9.6 0.00 0.00 0.00 67 1016.4
20260507013053 68 273 2.6 8.7 0.00 0.00 0.00 65 1016.4
20260507011557 69 291 2.6 8.7 0.00 0.00 0.00 63 1016.5
20260507010050 70 212 3.5 8.7 0.00 0.00 0.00 63 1016.4
20260507004550 70 311 1.7 9.6 0.00 0.00 0.00 62 1016.3
20260507003050 69 248 3.5 9.6 0.00 0.00 0.00 62 1016.3
20260507001551 70 194 3.5 9.6 0.00 0.00 0.00 62 1016.1
20260507000054 70 217 4.3 11.3 0.00 0.00 0.00 62 1016.2
20260506234616 70 344 3.5 10.4 0.00 0.00 0.00 62 1016.0
20260506233052 69 191 4.3 12.2 0.00 0.00 0.00 63 1016.0
20260506231549 70 261 4.3 12.2 0.00 0.00 0.00 63 1016.1
20260506230059 68 207 6.1 12.2 0.00 0.00 0.00 66 1016.1
20260506224552 68 273 6.1 11.3 0.00 0.00 0.00 66 1016.2
20260506223100 67 242 7.0 13.0 0.00 0.00 0.00 67 1016.5
20260506221556 68 232 5.2 15.6 0.00 0.00 0.00 64 1016.5
20260506220058 68 196 4.3 11.3 0.00 0.00 0.00 64 1016.7
20260506214555 68 209 4.3 12.2 0.00 0.00 0.00 65 1016.8
20260506213057 68 210 5.2 12.2 0.00 0.00 0.00 65 1016.8
20260506211552 68 202 6.1 12.2 0.00 0.00 0.00 66 1017.1
20260506210054 69 261 3.5 12.2 0.00 0.00 0.00 63 1017.1
20260506204600 68 205 5.2 11.3 0.00 0.00 0.00 64 1017.1
20260506203052 68 195 5.2 12.2 0.00 0.00 0.00 64 1017.2
20260506201557 67 233 7.0 12.2 0.00 0.00 0.00 65 1017.3
20260506200110 68 184 5.2 11.3 0.00 0.00 0.00 65 1017.4
20260506194606 67 211 7.0 11.3 0.00 0.00 0.00 65 1017.5
20260506193055 69 239 5.2 10.4 0.00 0.00 0.00 62 1017.5
20260506191555 69 209 4.3 9.6 0.00 0.00 0.00 62 1017.6
20260506190054 69 289 4.3 10.4 0.00 0.00 0.00 61 1017.7
20260506184605 69 290 3.5 10.4 0.00 0.00 0.00 61 1017.7
20260506183104 72 235 2.6 7.8 0.00 0.00 0.00 55 1017.9
20260506181559 71 286 3.5 8.7 0.00 0.00 0.00 54 1017.9
20260506180051 72 246 2.6 7.0 0.00 0.00 0.00 51 1018.2
20260506174603 70 292 1.7 8.7 0.00 0.00 0.00 55 1018.3
20260506173111 70 254 2.6 7.8 0.00 0.00 0.00 54 1018.3
20260506171600 68 312 1.7 7.0 0.00 0.00 0.00 56 1018.5
20260506170100 68 5 0.9 7.0 0.00 0.00 0.00 58 1018.4
20260506164558 67 279 3.5 7.0 0.00 0.00 0.00 60 1018.5
20260506163056 65 297 0.9 7.0 0.00 0.00 0.00 64 1018.4